KX4KY-13 Weather Reports


time (UTC)temp
C
wind
direction
speed
KPH
gust
KPH
rain 1hr
cm
rain 24hr
cm
rain mn
cm
humidity
%
barometer
mb
20260504000019 12 349 0.0 3.2 0.00 0.00 0.00 60 1016.7
20260503235018 12 8 0.0 3.2 0.00 0.00 0.00 59 1016.8
20260503234018 12 11 0.0 1.6 0.00 0.00 0.00 59 1016.6
20260503233018 13 3 1.6 3.2 0.00 0.00 0.00 57 1016.6
20260503232039 13 8 0.0 3.2 0.00 0.00 0.00 56 1016.6
20260503231100 13 12 1.6 4.8 0.00 0.00 0.00 54 1016.5
20260503230016 13 21 1.6 4.8 0.00 0.00 0.00 53 1016.6
20260503225019 13 26 0.0 3.2 0.00 0.00 0.00 52 1016.6
20260503224019 14 45 1.6 11.3 0.00 0.00 0.00 51 1016.7
20260503223016 14 80 1.6 6.4 0.00 0.00 0.00 52 1016.7
20260503222016 14 54 1.6 8.0 0.00 0.00 0.00 51 1016.7
20260503221017 14 49 1.6 8.0 0.00 0.00 0.00 50 1016.7
20260503220016 14 32 1.6 9.7 0.00 0.00 0.00 50 1016.7
20260503215016 15 50 3.2 9.7 0.00 0.00 0.00 49 1016.9
20260503214036 15 55 1.6 6.4 0.00 0.00 0.00 49 1016.9
20260503213016 15 359 1.6 8.0 0.00 0.00 0.00 47 1017.0
20260503212017 15 18 1.6 4.8 0.00 0.00 0.00 47 1017.1
20260503211017 15 137 3.2 8.0 0.00 0.00 0.00 46 1017.1
20260503210017 15 125 1.6 3.2 0.00 0.00 0.00 47 1017.2
20260503205018 16 359 1.6 4.8 0.00 0.00 0.00 46 1017.5
20260503204017 16 59 1.6 4.8 0.00 0.00 0.00 45 1017.5
20260503203018 16 139 3.2 6.4 0.00 0.00 0.00 44 1016.9
20260503202038 16 59 1.6 6.4 0.00 0.00 0.00 43 1017.1
20260503201018 16 22 1.6 8.0 0.00 0.00 0.00 43 1017.2
20260503200038 16 81 1.6 6.4 0.00 0.00 0.00 44 1017.3
20260503195018 16 41 1.6 6.4 0.00 0.00 0.00 44 1017.5
20260503194020 16 49 1.6 6.4 0.00 0.00 0.00 44 1017.5
20260503193017 16 34 3.2 8.0 0.00 0.00 0.00 45 1017.7
20260503192015 16 5 3.2 8.0 0.00 0.00 0.00 45 1017.8
20260503191016 16 22 3.2 8.0 0.00 0.00 0.00 46 1017.9
20260503190016 16 29 3.2 8.0 0.00 0.00 0.00 45 1017.9
20260503185038 16 122 3.2 11.3 0.00 0.00 0.00 45 1017.9
20260503184016 16 89 3.2 6.4 0.00 0.00 0.00 46 1018.2
20260503183021 16 143 1.6 6.4 0.00 0.00 0.00 43 1018.1
20260503182017 16 223 3.2 9.7 0.00 0.00 0.00 44 1018.2
20260503181017 16 69 3.2 8.0 0.00 0.00 0.00 44 1018.3
20260503180038 16 54 1.6 8.0 0.00 0.00 0.00 45 1018.2
20260503175016 16 68 1.6 6.4 0.00 0.00 0.00 43 1018.2
20260503174036 15 128 3.2 9.7 0.00 0.00 0.00 45 1018.3
20260503173018 15 35 3.2 8.0 0.00 0.00 0.00 45 1018.5
20260503172018 15 26 1.6 6.4 0.00 0.00 0.00 45 1018.6
20260503171017 15 19 3.2 9.7 0.00 0.00 0.00 47 1018.8
20260503131017 10 21 1.6 8.0 0.00 0.00 0.00 58 1018.5
20260503081029 5 0.0 0.0 0.00 0.00 0.00 71 1016.7
20260503080107 5 68 0.0 3.2 0.00 0.00 0.00 72 1016.7
20260503072028 6 53 0.0 4.8 0.00 0.00 0.00 71 1016.3
20260503071028 6 31 1.6 3.2 0.00 0.00 0.00 70 1016.2
20260503055049 6 164 1.6 3.2 0.00 0.00 0.00 66 1016.1
20260503054029 6 146 3.2 6.4 0.00 0.00 0.00 66 1016.0
20260503053030 7 146 1.6 3.2 0.00 0.00 0.00 65 1016.3
20260503052051 7 176 1.6 4.8 0.00 0.00 0.00 62 1016.3
20260503051111 7 190 1.6 6.4 0.00 0.00 0.00 63 1016.2
20260503050030 7 174 1.6 6.4 0.00 0.00 0.00 63 1016.2
20260503045030 7 190 1.6 6.4 0.00 0.00 0.00 63 1016.3
20260503044030 7 203 0.0 4.8 0.00 0.00 0.00 64 1016.3
20260503043030 7 213 1.6 4.8 0.00 0.00 0.00 64 1016.3
20260503042017 7 145 0.0 3.2 0.00 0.00 0.00 61 1016.3
20260503041037 7 182 1.6 4.8 0.00 0.00 0.00 60 1016.3
20260503040016 7 136 0.0 3.2 0.00 0.00 0.00 60 1016.1
20260503035016 7 175 1.6 4.8 0.00 0.00 0.00 59 1016.0
20260503034058 7 175 1.6 9.7 0.00 0.00 0.00 59 1015.8
20260503033018 7 37 1.6 4.8 0.00 0.00 0.00 59 1015.7
20260503032018 7 168 0.0 4.8 0.00 0.00 0.00 60 1015.8
20260503031016 8 89 0.0 8.0 0.00 0.00 0.00 61 1015.7
20260503030018 8 49 1.6 4.8 0.00 0.00 0.00 59 1015.7
20260503025017 8 43 3.2 6.4 0.00 0.00 0.00 58 1015.3
20260503024018 8 172 3.2 9.7 0.00 0.00 0.00 55 1014.9
20260503023038 8 121 3.2 8.0 0.00 0.00 0.00 55 1014.9
20260503022017 8 134 3.2 8.0 0.00 0.00 0.00 55 1014.8
20260503021018 8 134 3.2 8.0 0.00 0.00 0.00 55 1014.7
20260503020018 8 147 1.6 8.0 0.00 0.00 0.00 55 1014.7
20260503015018 8 147 3.2 9.7 0.00 0.00 0.00 54 1014.5
20260503014018 9 140 3.2 9.7 0.00 0.00 0.00 53 1014.1
20260503013018 9 160 3.2 6.4 0.00 0.00 0.00 53 1014.2
20260503012018 9 134 3.2 9.7 0.00 0.00 0.00 53 1014.0
20260503011019 9 139 4.8 11.3 0.00 0.00 0.00 52 1013.8
20260503010018 9 94 3.2 6.4 0.00 0.00 0.00 52 1013.8
20260503005016 10 153 1.6 11.3 0.00 0.00 0.00 51 1013.7
20260503004020 10 156 4.8 12.9 0.00 0.00 0.00 50 1013.5
20260503003017 10 108 1.6 6.4 0.00 0.00 0.00 50 1013.4
20260503002016 10 117 4.8 11.3 0.00 0.00 0.00 49 1013.2
20260503001016 10 132 3.2 6.4 0.00 0.00 0.00 49 1013.0